Location: Unspecified
(35.6961°N, 0.0000°E)
Time: 23:53:03
(UTC+00:00)

Vanguard 2 Rocket - Pass Details

Date: 28 May 2019
Orbit: 555 x 3326 km, 32.9° (Epoch: 26 June)

Event Time Altitude Azimuth Distance (km) Brightness Sun altitude
Rises 04:32:47 0° 243° (WSW) 7,231 - -3.4°
Exits shadow 04:34:24 - 242° (WSW) 6,911 10.7 -3.1°
Reaches altitude 10° 04:37:37 10° 241° (WSW) 6,275 10.5 -2.5°
Maximum altitude 04:57:43 69° 163° (SSE) 3,051 9.6 1.1°
Drops below altitude 10° 05:11:48 10° 84° (E) 4,609 12.2 3.7°
Sets 05:14:44 0° 82° (E) 5,303 12.7 4.2°
